Date String (YYYY-MM-DD hh:mm:ss) UTC,Instrument flags,Ambient pressure (hPa),Sample flow (lpm),Bypass flow (lpm),Sample temperature (°C),Ambient temperature (°C),ASC tube jacket temperature (°C),LED temperature (°C),Box temperature (°C),Sample RH (%),Span deviation,Mass concentration (μg/m³),Mass concentration (μg/m³),Mass concentration (μg/m³)
DateTimeUTC,F1_M11,P_M11,Q1_M11,Q2_M11,T1_M11,T2_M11,T3_M11,T4_M11,T5_M11,U1_M11,ZSPAN_M11,X0_M11,X2_M11,X1_M11
2022-04-19 17:00:00,,0815.9,5.02,0.00,26.4,25.6,00.0,35.1,28.3,10.5,0002.2,0022.91,0008.09,0005.02
2022-04-19 17:01:00,,0815.9,5.01,0.00,26.4,25.6,00.0,35.2,28.3,10.5,0001.4,0023.45,0007.96,0004.91
2022-04-19 17:02:00,,0815.9,5.00,0.00,26.4,25.6,00.0,35.2,28.3,11.2,0001.5,0024.64,0007.90,0004.83
2022-04-19 17:03:00,,0815.9,4.99,0.00,26.4,25.7,00.0,35.2,28.3,11.6,0002.4,0026.14,0007.94,0004.75
2022-04-19 17:04:00,,0815.9,5.01,0.00,26.5,25.7,00.0,35.2,28.4,09.6,0002.3,0025.79,0007.92,0004.65
2022-04-19 17:05:00,,0815.9,4.99,0.00,26.5,25.7,00.0,35.2,28.4,09.2,0002.1,0025.87,0007.84,0004.56
2022-04-19 17:06:00,,0815.9,5.02,0.00,26.5,25.7,00.0,35.3,28.4,11.2,0001.0,0025.42,0007.83,0004.50
2022-04-19 17:07:00,,0815.8,4.99,0.00,26.5,25.8,00.0,35.3,28.4,13.7,0000.1,0026.46,0007.90,0004.52
2022-04-19 17:08:00,,0815.8,4.99,0.00,26.6,25.8,00.0,35.3,28.5,15.2,0001.1,0026.68,0008.01,0004.61
2022-04-19 17:09:00,,0815.9,5.01,0.00,26.6,25.8,00.0,35.3,28.5,14.8,0000.9,0026.87,0008.15,0004.71
2022-04-19 17:10:00,,0815.8,4.99,0.00,26.6,25.8,00.0,35.3,28.5,14.4,0000.5,0026.61,0008.35,0004.81
2022-04-19 17:11:00,,0815.8,5.00,0.00,26.6,25.8,00.0,35.4,28.5,13.3,0001.8,0025.90,0008.45,0004.88
2022-04-19 17:12:00,,0815.8,5.01,0.00,26.7,25.9,00.0,35.4,28.6,12.5,0001.7,0024.86,0008.52,0004.95
2022-04-19 17:13:00,,0815.8,5.00,0.00,26.7,25.9,00.0,35.4,28.6,10.2,0000.9,0024.53,0008.55,0004.95
2022-04-19 17:14:00,,0815.9,4.99,0.00,26.7,25.9,00.0,35.4,28.6,10.8,-000.1,0023.05,0008.45,0004.94
2022-04-19 17:15:00,,0815.7,5.01,0.00,26.7,25.9,00.0,35.5,28.7,11.2,0000.4,0023.45,0008.43,0004.97
2022-04-19 17:16:00,,0815.7,5.00,0.00,26.8,25.9,00.0,35.5,28.7,10.9,-000.1,0024.10,0008.42,0005.02
2022-04-19 17:17:00,,0815.7,4.99,0.00,26.8,26.0,00.0,35.5,28.7,09.9,0000.6,0024.52,0008.38,0005.01
2022-04-19 17:18:00,,0815.8,5.00,0.00,26.8,26.0,00.0,35.5,28.7,09.0,0001.1,0023.61,0008.30,0004.92
2022-04-19 17:19:00,,0815.8,5.00,0.00,26.8,26.0,00.0,35.5,28.7,09.8,0000.2,0023.32,0008.12,0004.80
2022-04-19 17:20:00,,0815.8,5.01,0.00,26.8,26.0,00.0,35.6,28.7,09.7,0000.2,0022.42,0007.98,0004.68
2022-04-19 17:21:00,,0815.8,4.99,0.00,26.8,26.1,00.0,35.6,28.7,09.8,0000.5,0022.25,0007.77,0004.59
2022-04-19 17:22:00,,0815.8,5.00,0.00,26.9,26.1,00.0,35.6,28.8,08.7,-000.1,0023.09,0007.61,0004.50
2022-04-19 17:23:00,,0815.7,5.01,0.00,26.9,26.1,00.0,35.6,28.8,10.3,-000.0,0022.84,0007.58,0004.42
2022-04-19 17:24:00,,0815.7,5.00,0.00,26.9,26.1,00.0,35.6,28.8,10.0,0000.4,0022.37,0007.61,0004.38
2022-04-19 17:25:00,,0815.7,4.99,0.00,26.9,26.1,00.0,35.7,28.8,10.4,0001.3,0022.25,0007.62,0004.42
2022-04-19 17:26:00,,0815.6,5.02,0.00,26.9,26.1,00.0,35.7,28.8,10.8,0000.8,0022.11,0007.64,0004.43
2022-04-19 17:27:00,,0815.7,5.00,0.00,27.0,26.1,00.0,35.7,28.9,11.3,0001.3,0022.22,0007.74,0004.45
2022-04-19 17:28:00,,0816.1,5.00,0.00,27.0,26.2,00.0,35.7,28.9,10.8,0001.2,0023.57,0007.90,0004.50
2022-04-19 17:29:00,,0815.8,5.00,0.00,27.0,26.2,00.0,35.7,28.9,11.7,0000.4,0024.24,0007.94,0004.57
2022-04-19 17:30:00,,0815.7,5.01,0.00,27.0,26.2,00.0,35.8,28.9,12.2,0000.3,0024.97,0008.10,0004.66
2022-04-19 17:31:00,,0815.8,4.98,0.00,27.1,26.2,00.0,35.8,29.0,12.2,-000.3,0024.91,0008.23,0004.73
2022-04-19 17:32:00,,0815.8,5.01,0.00,27.1,26.3,00.0,35.8,29.0,11.3,-000.4,0025.68,0008.35,0004.81
2022-04-19 17:33:00,,0815.7,5.00,0.00,27.1,26.3,00.0,35.8,29.0,08.4,0000.4,0025.69,0008.41,0004.83
2022-04-19 17:34:00,,0815.6,4.99,0.00,27.1,26.3,00.0,35.9,29.0,06.9,0000.0,0026.39,0008.26,0004.73
2022-04-19 17:35:00,,0815.4,5.00,0.00,27.1,26.3,00.0,35.9,29.0,06.7,0000.1,0025.79,0008.00,0004.63
2022-04-19 17:36:00,,0815.3,5.01,0.00,27.1,26.3,00.0,35.9,29.0,06.3,0000.1,0025.03,0007.81,0004.49
2022-04-19 17:37:00,,0815.3,5.01,0.00,27.1,26.3,00.0,35.9,29.0,06.3,0000.4,0024.21,0007.57,0004.35
2022-04-19 17:38:00,,0815.3,5.00,0.00,27.1,26.3,00.0,35.9,29.0,06.6,0000.2,0022.98,0007.32,0004.19
2022-04-19 17:39:00,,0815.2,4.99,0.00,27.2,26.3,00.0,35.9,29.0,06.8,0000.0,0020.78,0006.99,0004.01
2022-04-19 17:40:00,,0815.2,5.01,0.00,27.2,26.3,00.0,35.9,29.0,06.5,0000.0,0020.71,0006.73,0003.84
2022-04-19 17:41:00,,0815.2,4.99,0.00,27.2,26.3,00.0,36.0,29.0,06.4,0000.0,0019.05,0006.44,0003.64
2022-04-19 17:42:00,,0815.3,5.01,0.00,27.2,26.3,00.0,36.0,29.0,06.4,0000.0,0018.34,0006.13,0003.45
2022-04-19 17:43:00,,0815.2,5.00,0.00,27.2,26.3,00.0,36.0,29.1,06.7,0000.0,0017.66,0005.87,0003.27
2022-04-19 17:44:00,,0815.3,4.99,0.00,27.2,26.3,00.0,36.0,29.1,06.4,0000.0,0016.73,0005.62,0003.11
2022-04-19 17:45:00,,0815.2,5.00,0.00,27.2,26.3,00.0,36.0,29.1,06.3,0000.0,0015.57,0005.57,0003.10
2022-04-19 17:46:00,,0815.1,5.01,0.00,27.3,26.3,00.0,36.0,29.1,06.6,0000.0,0015.02,0005.54,0003.11
2022-04-19 17:47:00,,0815.2,4.99,0.00,27.3,26.4,00.0,36.1,29.2,06.3,0000.0,0014.92,0005.47,0003.11
2022-04-19 17:48:00,,0815.1,5.01,0.00,27.3,26.4,00.0,36.1,29.2,06.6,0000.0,0015.40,0005.55,0003.12
2022-04-19 17:49:00,,0815.2,5.00,0.00,27.3,26.4,00.0,36.1,29.2,06.4,0000.0,0015.25,0005.53,0003.13
2022-04-19 17:50:00,,0815.2,4.99,0.00,27.3,26.4,00.0,36.1,29.2,06.2,0000.0,0015.18,0005.49,0003.13
2022-04-19 17:51:00,,0815.1,5.01,0.00,27.3,26.4,00.0,36.1,29.2,06.2,0000.0,0013.95,0005.36,0003.12
2022-04-19 17:52:00,,0815.1,4.99,0.00,27.3,26.4,00.0,36.1,29.2,06.6,0000.0,0013.68,0005.29,0003.13
2022-04-19 17:53:00,,0815.0,5.01,0.00,27.3,26.4,00.0,36.1,29.2,06.5,0000.0,0013.87,0005.25,0003.13
2022-04-19 17:54:00,,0815.0,5.00,0.00,27.4,26.4,00.0,36.2,29.2,06.2,0000.0,0013.77,0005.23,0003.11
2022-04-19 17:55:00,,0815.0,4.99,0.00,27.4,26.5,00.0,36.2,29.2,06.5,0000.0,0013.39,0005.25,0003.12
2022-04-19 17:56:00,,0814.9,4.98,0.00,27.4,26.5,00.0,36.2,29.3,06.4,0000.0,0013.50,0005.26,0003.11
2022-04-19 17:57:00,,0815.0,5.01,0.00,27.4,26.5,00.0,36.2,29.3,06.3,0000.0,0014.40,0005.31,0003.12
2022-04-19 17:58:00,,0815.1,4.99,0.00,27.4,26.5,00.0,36.2,29.3,06.2,0000.0,0014.25,0005.29,0003.10
2022-04-19 17:59:00,,0815.1,5.00,0.00,27.4,26.5,00.0,36.2,29.3,06.2,0000.0,0013.74,0005.23,0003.09
